200 serials | dream match tennis pro registration code crack

Date Name Success Rate
2009-10-17 06:21:33 Dream Match Tennis V1.02 57%
2009-10-17 06:21:33 Dream Match Tennis V1.03 54%
2009-10-17 06:21:33 Dream Match Tennis V1.04 14%
2009-10-17 06:21:33 Dream Match Tennis V1.05 16%
2009-10-17 06:21:33 Dream Match Tennis V1.06 18%
2009-10-17 06:21:33 Dream Match Tennis V1.08 20%
2009-10-22 23:46:28 Dream Match Tennis 1.02 0%
2009-10-22 23:46:28 Dream Match Tennis 1.03 0%
2009-10-22 23:46:28 Dream Match Tennis 1.04 0%
2009-10-22 23:46:28 Dream Match Tennis Pro 2.09 62%
2009-10-22 23:46:28 Dream Match Tennis V1.06 0%
2009-10-22 23:46:28 Dream Match Tennis V1.08 40%
2011-09-08 10:44:51 Dream Match Tennis 1.03 0%
2009-10-17 06:21:33 Dream Match Tennis V1.07UCT 19%
2009-10-22 23:44:49 Bimboosoft Dream Match Tennis V1.09 0%
2009-10-22 23:44:49 Bimboosoft Dream Match Tennis V1.10 80%
2009-10-22 23:46:28 Dream Match Tennis V1.07-iNDUCT 0%
2011-09-08 10:19:55 Bimboosoft - Dream Match Tennis 1.03 0%
2012-12-12 04:12:25 Bimboosoft Dream Match Tennis v1.17 0%
2012-12-12 04:12:27 Bimboosoft Dream Match Tennis v1.22 0%
2009-10-17 06:19:31 Bimboosoft Dream Match Tennis V1.09 GAME 66%
2009-10-17 06:19:31 Bimboosoft Dream Match Tennis V1.10 GAME 49%
2012-12-12 04:12:18 Bimboosoft Dream Match Tennis Basic v1.17 0%
2011-09-08 10:56:11 FontLook v3.1 Registration Code 86%
2011-09-08 11:42:43 Nic O'Matic 1.6 Registration Code 50%
2011-09-08 11:42:43 Nic O'Matic v1.6 Registration Code 55%
2011-09-08 12:54:14 TimeSlips 10.5 enterprise - with registration code! 0%
2012-12-13 05:12:00 Registration Code For PDFZilla Giveaway 0%
2012-12-13 05:12:00 Registration code:-826510-16101-266644 71%
2011-09-08 12:40:34 Ray Dream Studio v5.0 Ray Dream Main Program 0%
2009-10-22 23:45:56 Crack EnCore! 6.8 62%
2009-10-22 23:48:37 L0pht Crack 4 78%
2009-10-22 23:48:37 Lc4 (l0pht Crack) 0%
2009-10-22 23:49:34 Quick Crack 1.5 39%
2011-09-08 11:25:08 Lc4 l0pht Crack 0%
2011-09-08 12:37:17 Quick Crack v1.5 54%
2011-09-08 12:47:40 SignLab Pro v4.95 Use crack first 60%
2012-12-12 06:43:02 Crack Dealer 45%
2009-10-22 23:27:14 Advance CD Ripper 2.70 (First Crack On The NeT) 73%
2009-10-22 23:49:35 Quicktime 7 Pro 7 1 3 Crack Serial 60%
2011-09-08 10:26:17 Civilization Crack Editor 1.1b 72%
2011-09-08 10:26:17 Civilization Crack Editor v1.1b 0%
2012-12-13 09:15:56 Sothink SWF Easy 6.6.546 + Crack 62%
2009-10-30 05:07:11 Adobe CS4 Master Suite Crack 0%
2011-09-08 10:06:41 Anatomy Ultimate crack 2004 67%
2011-09-08 10:31:56 Crack fuer Windows 5.12 german 0%
2011-09-08 10:31:56 Crack fuer Windows v5.12 german 0%
2012-12-13 12:59:39 Tipard HD Video Converter v4.0.06 + Crack [RH] 77%
2009-10-22 23:48:48 Medion GoPal POI Warner With Crack+Keygen 46%
2009-10-22 23:49:59 Spyware Doctor 6.0.0.383 Original Serial No Crack 72%
2009-10-22 23:50:12 Tony Hawks Underground 2 *CRACK*- RELOADED 51%
2011-09-08 12:55:00 Total Commander Universal Crack 4 All Version 66%
2012-12-12 14:49:52 Idman607 Final incl crack-serials 67%
2011-09-08 10:00:39 Adobe Photoshop CS 8 Banknote Copy Protection CRACK 66%
2012-12-12 07:18:31 DDR-PenDrive Recovery(demo) 4.0.1.6+crack, serial, keygen, 67%
2009-10-22 23:48:37 LIMEWIRE PRO SERIAL/CRACK (Took A Long Time To Find Working One) 65%
2011-09-08 10:49:43 Error Doctor 2006 unknow but crack worked as of 07/25/2005 0%
2011-09-08 10:42:09 DAS Registration 1.5.2 69%
2011-09-08 10:42:09 DAS Registration For CW5 0%
2011-09-08 10:42:09 DAS Registration v1.5.2 0%
2009-10-22 23:49:22 Photoshop Cs And Image Ready Crack And Activation For2006 By Chanchal Kannan 0%
2011-09-08 12:50:31 SourceTec Applet Menu Wizard Email: [email protected] 0%
2009-10-17 06:27:02 Lazarus Registration DLL V1.0 59%
2009-10-22 23:48:48 MemoriesonTV Registration 0%
2009-10-22 23:49:42 Registration Wizard 40%
2011-09-08 10:06:47 AnetHelpTool v4.02 Registration 52%
2011-09-08 10:22:13 ByeLines Registration 60%
2011-09-08 10:57:42 Ftgate Registration 63%
2011-09-08 11:15:16 Infodex v2.10 Registration 0%
2011-09-08 11:25:08 Lazarus Registration DLL v1.0 0%
2011-09-08 11:27:46 Mac Opener v3.0 Registration 57%
2011-09-08 11:32:59 mIRC v4.5+ Registration 60%
2011-09-08 11:32:59 mIRC v4.52 Registration 60%
2011-09-08 12:37:02 Quant v2.0 Registration 0%
2011-09-08 12:41:14 Registration Suite 1.0 60%
2011-09-08 12:41:14 Registration Suite v1.0 60%
2011-09-08 12:41:14 Registration Wizard Pro 5.01 46%
2011-09-08 12:41:14 Registration Wizard Pro v5.01 60%
2011-09-08 13:18:59 WinHacker 95 v2.02 Registration 57%
2012-12-13 05:12:00 Registration Key : 526EFEF086E09600449E667EA2DAE8E2E6D642BC 83%
2009-10-22 23:27:21 Ardamax Keylogger 2.9 Registration 56%
2009-10-22 23:48:49 Microsoft Registration Hacker - 39%
2009-10-22 23:49:57 SoudForge ALL (No Registration Requiered) 0%
2009-10-22 23:50:26 Valve's Registration Armor Key-Gen 60%
2011-09-08 10:21:42 Browserola v1.01 Temp. Registration 0%
2011-09-08 11:31:51 Microsoft Registration Hacker 0%
2011-09-08 11:31:51 Microsoft Registration Hacker - 0%
2011-09-08 11:31:51 Microsoft Registration HackerMSREGHACK 0%
2011-09-08 11:32:07 Microstation v5.xx.xx & 95 FULL REGISTRATION 48%
2011-09-08 12:34:57 PolyTrans V1.2E Registration Activator CD-Key 62%
2011-09-08 12:34:57 PolyView v2.9b16 Registration 0%
2011-09-08 12:54:09 Time Registration (German) 1.10 0%
2011-09-08 12:59:30 Super Collapse Registration 100%
2011-09-08 13:23:15 Yipe! II for Windows Registration #154 0%
2012-12-13 08:49:53 Softwarenetz Time Registration v1.10 0%
2012-12-13 08:49:56 Softwarenetz Time Registration v1.14 0%
2012-12-13 15:34:10 Valve's Registration Armor Key-Gen 0%
2009-10-22 23:48:17 Internet Download Manager Registration 50%
2011-09-08 10:25:56 Cheyenne Bitware V4.0 Registration Number 60%
2011-09-08 11:31:51 Microsoft Registration Hacker MSREGHACK 80%
2011-09-08 11:31:51 Microsoft Visual Basic 5 registration cd key 72%
2012-12-12 08:07:32 Download avast 5.0.667 Antivirus registration 0%
2012-12-13 05:12:00 Registration key for x-3gp-video-converter-38540 54%
2012-12-13 13:12:40 Total Image Converter Registration Key 57%
2009-10-22 23:49:20 Pda3dware 3D Tennis 0%
2009-10-22 23:50:09 Tennis Captain 0%
2009-10-22 23:50:12 Top Spin Tennis 0%
2011-09-08 09:46:00 3D Pda3dware Tennis 0%
2011-09-08 11:42:52 Nice Tennis 1.0 0%
2011-09-08 12:29:23 Pda3dware 3D Tennis 0%
2011-09-08 12:38:48 ProTracker Tennis v3.3 0%
2011-09-08 12:48:54 SMART TENNIS 0%
2011-09-08 12:51:33 Table Tennis v0.91 0%
2011-09-08 12:51:33 Table Tennis v1.0 100%
2011-09-08 12:52:26 Tennis Captain 0%
2011-09-08 12:54:50 Top Spin Tennis 0%
2011-09-08 11:30:16 MediaBlaze 98 v1.01 Win95/NT User: delphic Registration 0%
2009-10-17 06:33:19 Tennis Organizer Deluxe V2.2 0%
2009-10-17 06:33:19 Tennis Organizer Deluxe V2.3 0%
2009-10-17 06:33:19 Tennis Organizer Deluxe V2.4 0%
2009-10-17 06:33:19 Tennis Organizer Deluxe V2.5 0%
2009-10-17 06:33:19 Tennis Organizer Deluxe V2.6 0%
2009-10-17 06:33:19 Tennis Organizer Deluxe V2.7 100%
2009-10-22 23:50:09 Tennis Elbow 2005 1.0 0%
2009-10-22 23:50:09 Tennis Organizer Deluxe 2 0%
2009-10-22 23:50:09 Tennis Organizer Deluxe 2.1 0%
2009-10-22 23:50:09 Tennis Organizer Deluxe 2.3 0%
2009-10-22 23:50:09 Tennis Organizer Deluxe 2.4 0%
2009-10-22 23:50:09 Tennis Organizer Deluxe 2.5 0%
2009-10-22 23:50:09 Tennis Organizer Deluxe V2.6 0%
2009-10-22 23:50:09 Tennis Organizer Deluxe V2.7 0%
2009-10-22 23:50:27 Virtual Table Tennis 0,91 0%
2011-09-08 12:29:23 PDAorb Table Tennis v1.0 0%
2011-09-08 12:52:28 Tennis Organizer Deluxe 1.7 0%
2011-09-08 12:52:28 Tennis Organizer Deluxe 1.8 0%
2011-09-08 12:52:28 Tennis Organizer Deluxe 2 0%
2011-09-08 12:52:28 Tennis Organizer Deluxe 2.0 0%
2011-09-08 12:52:28 Tennis Organizer Deluxe 2.1 0%
2011-09-08 12:52:28 Tennis Organizer Deluxe 2.3 0%
2011-09-08 12:52:28 Tennis Organizer Deluxe 2.4 0%
2011-09-08 12:52:28 Tennis Organizer Deluxe v1.7 0%
2011-09-08 12:52:28 Tennis Organizer Deluxe v1.8 0%
2011-09-08 12:52:28 Tennis Organizer Deluxe v1.9 61%
2011-09-08 12:52:28 Tennis Organizer Deluxe v2.0 0%
2011-09-08 13:12:14 Virtual Table Tennis 0%
2011-09-08 13:12:14 Virtual Table Tennis 0,91 0%
2011-09-08 13:12:14 Virtual Table Tennis 1.0 0%
2011-09-08 13:12:14 Virtual Table Tennis v1.0 0%
2011-09-08 13:12:14 Virtual Table Tennis v1.91 0%
2009-10-22 23:49:02 Norton Internet Security 2005 Registration Guide 0%
2011-09-08 09:58:40 Acoustica Mixcraft v1.10 Build 15 Registration Info by MaBi 60%
2011-09-08 12:36:39 PrimaSoft Tennis Organizer Deluxe v1.7 0%
2011-09-08 12:36:39 PrimaSoft Tennis Organizer Deluxe v2.1 0%
2011-09-08 12:52:28 Tennis Organizer Deluxe v2.1 by REVENGE 0%
2011-09-08 12:52:28 Tennis Organizer Deluxe v2.2 by CHiCNCREAM 0%
2012-12-13 03:27:25 PrimaSoft Tennis Organizer Deluxe v3.7 0%
2012-12-12 19:40:26 Microsoft Visual Basic 2008 Express Edition Registration key 20%
2009-10-17 06:28:00 Mix And Match V3.3.0 0%
2009-10-22 23:48:50 Mix And Match V3.3.0 0%
2009-10-22 23:48:50 Mix N Match 1.1 0%
2011-09-08 11:29:38 match 1.0 0%
2011-09-08 11:29:38 Match 2.3 0%
2011-09-08 11:29:38 Match v2.3 0%
2011-09-08 11:33:04 Mix And Match 1.0 0%
2011-09-08 11:33:04 Mix and Match 2.2 0%
2011-09-08 11:33:04 Mix And Match v1.0 0%
2011-09-08 11:33:04 Mix N Match 1.1 0%
2011-09-08 11:33:04 Mix N Match v1.1 0%
2011-09-08 11:33:04 Mix&Match 2.1 0%
2011-09-08 11:33:04 Mix&Match v2.1 0%
2009-10-17 06:24:28 HTML Match V1.2.2 0%
2009-10-17 06:24:28 HTML Match V1.2.2 0%
2009-10-17 06:24:28 HTML Match V1.2.9 0%
2009-10-17 06:28:00 Mix And Match Association V2.3.0 0%
2009-10-22 23:46:26 Dfx V.7(Music Match) 0%
2009-10-22 23:47:53 Folder Match 3.4.4 0%
2009-10-22 23:48:08 HTML Match 1.1.2 0%
2009-10-22 23:48:08 HTML Match 1.2.2 0%
2009-10-22 23:48:08 HTML Match V1.2.9 0%
2009-10-22 23:48:45 Magic Match 35%
2009-10-22 23:48:50 Mix And Match Association V2.3.0 0%
2009-10-22 23:48:53 Music Match 7.0 0%
2009-10-22 23:48:53 Music Match 8.0 Plus Key 0%
2009-10-22 23:48:53 Music Match 8.2 0%
2009-10-22 23:48:53 Music Match Ver. 7.5 0%
2011-09-08 10:55:59 Folder Match 2.05.01 53%
2011-09-08 10:55:59 Folder Match 2.10 0%
2011-09-08 10:55:59 Folder Match 2.5.1 0%
2011-09-08 10:55:59 Folder Match 3.1.5 0%
2011-09-08 10:55:59 Folder Match 3.1.7 0%
2011-09-08 10:55:59 Folder Match 3.1.9 0%
2011-09-08 10:55:59 Folder Match 3.2.1 0%
2011-09-08 10:55:59 Folder Match 3.4.3 0%
2011-09-08 10:55:59 Folder Match 3.4.4 0%
2011-09-08 10:55:59 Folder Match 3.4.7 0%
2011-09-08 10:55:59 Folder Match v2.05.01 0%
2011-09-08 10:55:59 Folder Match v2.10 0%
2011-09-08 10:55:59 Folder Match v2.5.1 0%
2011-09-08 10:55:59 Folder Match v3.1.5 0%
2011-09-08 10:55:59 Folder Match v3.1.7 0%